Regional Weather Roundup
Issued by NWS

Home | Current Version | Previous Version | Text Only | Print | Product List | Glossary On
Versions: 1 2 3 4 5 6 7 8 9 10 11 12 13 14 15 16 17 18 19 20 21 22 23 24 25 26 27 28 29 30 31 32 33 34 35 36 37 38 39 40 41 42 43 44 45 46 47 48 49 50
000
ASUS45 KPSR 220210
RWRAZ

ARIZONA REGIONAL HOURLY WEATHER ROUNDUP
NATIONAL WEATHER SERVICE PHOENIX AZ
700 PM MST THU AUG 21 2014

NOTE: FAIR INDICATES FEW OR NO CLOUDS BELOW 12,000 FEET WITH NO
SIGNIFICANT WEATHER AND/OR OBSTRUCTIONS TO VISIBILITY.

AZZ001>003-036-220300-
NORTHWEST ARIZONA

CITY           SKY/WX    TMP DP  RH WIND       PRES   REMARKS
BULLHEAD CITY  CLEAR     90  50  25 N7        29.87F
KINGMAN        PTCLDY    70  59  68 N8        30.06S
$$

AZZ004>008-015-016-018-220300-
NORTH CENTRAL ARIZONA

CITY           SKY/WX    TMP DP  RH WIND       PRES   REMARKS
GRAND CANYON   LGT RAIN  55  52  89 S6        30.31
WILLIAMS       MOCLDY    55  54  94 CALM      30.31F
PRESCOTT       PTCLDY    64  52  64 CALM      30.17S
FLAGSTAFF      CLOUDY    55  53  93 E3        30.28F
PAYSON         CLOUDY    70  55  60 CALM      30.17S
PAGE           CLOUDY    81  43  26 SW5       30.05S
$$

AZZ009>014-017-220300-
NORTHEAST ARIZONA

CITY           SKY/WX    TMP DP  RH WIND       PRES   REMARKS
WINSLOW        CLOUDY    67  57  70 NW9       30.17R
SAINT JOHNS    LGT RAIN  63  55  75 NW8       30.20R
WINDOW ROCK    LGT RAIN  61  53  75 W5        30.26S
SHOW LOW       CLOUDY    63  50  63 SE7       30.26S
$$

AZZ023-220300-
GREATER PHOENIX AREA

CITY           SKY/WX    TMP DP  RH WIND       PRES   REMARKS
PHOENIX        MOCLDY    88  57  34 S3        29.88S
BUCKEYE          N/A     82  66  57 E6        29.89S
GLENDALE       MOCLDY    88  63  42 SE3       29.90S
LUKE AFB       NOT AVBL
DEER VALLEY    MOCLDY    85  59  41 SE3       29.90F
SCOTTSDALE     MOCLDY    86  58  38 CALM      29.92S
MESA-FALCON    MOCLDY    88  55  33 CALM      29.90S
MESA-GATEWAY   MOCLDY    86  54  32 CALM      29.93S
CHANDLER       MOCLDY    86  59  39 VRB5      29.90S
$$

AZZ027-028-220300-
SOUTHWEST MARICOPA COUNTY AND PINAL COUNTY

CITY           SKY/WX    TMP DP  RH WIND       PRES   REMARKS
CASA GRANDE    PTCLDY    86  57  37 CALM      29.92S
GILA BEND      TSTM      84  64  51 W21G28    29.90S
$$

AZZ503-504-507>509-220300-
SOUTHEAST ARIZONA

CITY           SKY/WX    TMP DP  RH WIND       PRES   REMARKS
TUCSON         CLOUDY    80  62  54 E5        30.01S
DAVIS-MONTHAN  MOCLDY    78  63  59 E5        30.00S
RYAN FIELD       N/A     79  66  65 CALM      30.00R
NOGALES        CLOUDY    74  63  68 CALM      30.08S
SIERRA VISTA   MOCLDY    70  63  78 W6        30.15R
DOUGLAS        CLOUDY    69  64  84 NW9       30.11R
SAFFORD        CLOUDY    81  50  33 NW14      29.99R
$$

AZZ020-021-025-026-031-220300-
SOUTHWEST ARIZONA

CITY           SKY/WX    TMP DP  RH WIND       PRES   REMARKS
YUMA           CLOUDY    73  65  75 NE13      29.89F
$$

CAZ031-033-041-043-047-048-061-220300-
SOUTHERN CALIFORNIA

CITY           SKY/WX    TMP DP  RH WIND       PRES   REMARKS
DOWNTOWN L.A.  CLEAR     74  62  66 W8        29.90R
L.A. AIRPORT   PTCLDY    71  63  75 W13       29.91R
SAN DIEGO      MOCLDY    73  62  68 NW7       29.94R
BURBANK        CLEAR     76  60  57 S13       29.90R
ONTARIO        PTCLDY    82  60  47 W15       29.88S
RIVERSIDE      CLEAR     81  61  50 W12       29.88R
PALM SPRINGS   MOCLDY    87  56  34 E6        29.92R
EL CENTRO NAS  CLOUDY    74  65  73 SE15      29.91R
IMPERIAL       CLOUDY    75  63  66 SE9G21    29.90R
BLYTHE         LGT RAIN  69  67  93 E9        29.93F
NEEDLES        MOCLDY    86  60  41 W20       29.89R
$$

NVZ020-UTZ003-220300-
SOUTHERN NEVADA-UTAH

CITY           SKY/WX    TMP DP  RH WIND       PRES   REMARKS
LAS VEGAS      MOCLDY    82  48  30 S13       29.92F
SALT LAKE CITY MOCLDY    75  46  35 S6        30.00S
$$

NMZ009-TXZ055-220300-
NEW MEXICO-WEST TEXAS

CITY           SKY/WX    TMP DP  RH WIND       PRES   REMARKS
ALBUQUERQUE    PTCLDY    83  37  19 S6        30.08R
EL PASO        CLOUDY    86  54  33 S18G28    30.01R
$$


........................KEY........................
SKY/WX - SKY CONDITION/WEATHER
TMP    - TEMPERATURE IN FAHRENHEIT
DP     - DEW POINT IN FAHRENHEIT
RH     - RELATIVE HUMIDITY IN PERCENT
WIND   - DIRECTION AND SPEED IN MILES PER HOUR (MPH)
VRB    - VARIABLE WIND DIRECTION
PRES   - MEAN SEA LEVEL PRESSURE IN INCHES OF MERCURY
         F - FALLING PRESSURE   R - RISING PRESSURE
         S - STEADY PRESSURE
VSB    - VISIBILITY IN MILES
HX     - HEAT INDEX IN FAHRENHEIT
WCI    - WIND CHILL INDEX IN FAHRENHEIT
TC     - TEMPERATURE IN CELSIUS WHICH IS ALSO KNOWN AS
         TEMPERATURE IN CENTIGRADE
AFB    - AIR FORCE BASE
         LUKE AFB IS LUKE AIR FORCE BASE
         DAVIS-MONTHAN IS DAVIS-MONTHAN AIR FORCE BASE
NAS    - NAVAL AIR STATION
         EL CENTRO NAS IS EL CENTRO NAVAL AIR STATION
N/A    - NOT AVAILABLE


USA.gov is the U.S. government's official web portal to all federal, state and local government web resources and services.